Terminal Aerodrome Forecast
Issued by NWS

Home | Current Version | Previous Version | Text Only | Print | Product List | Glossary On
Versions: 1 2 3 4 5 6 7 8 9 10 11 12 13 14 15 16 17 18 19 20 21 22 23
227
FTUS46 KSEW 211356 AAB
TAFBLI
TAF AMD
KBLI 211356Z 2114/2212 02006KT 1/4SM FG VV002
      TEMPO 2116/2118 3SM BR OVC015
     FM211800 36004KT P6SM SCT015 BKN040
     FM212100 23006KT P6SM SCT020 BKN050
     FM220200 18003KT P6SM SCT030 BKN100=

USA.gov is the U.S. government's official web portal to all federal, state and local government web resources and services.